1484082000.47,47059,5.25,72538.8,-18.63,-50.83,-51.25,0,*6E
1484082001.7,47060,5.25,72540.5,-18.65,-50.67,-51.11,0,*6F
1484082002.97,47061,5.25,72538.8,-18.65,-50.83,-51.25,0,*63
1484082004.22,47062,5.25,72536.8,-18.65,-50.83,-51.11,0,*67
1484082005.47,47063,5.25,72528.5,-18.65,-51.05,-51.25,0,*6E
1484082006.71,47064,5.25,72528.3,-18.65,-50.89,-51.47,0,*68
1484082007.95,47065,5.25,72530.3,-18.65,-50.89,-51.25,0,*6D
1484082009.2,47066,5.25,72528.8,-18.65,-51.05,-51.47,0,*6F
1484082010.43,47067,5.25,72532.5,-18.65,-50.89,-51.47,0,*6B
1484082011.68,47068,5.31,72536.3,-18.65,-50.83,-51.11,0,*6D
1484082012.93,47069,5.25,72532.0,-18.65,-50.89,-51.25,0,*61
1484082014.17,47070,5.25,72534.0,-18.65,-51.05,-51.33,0,*6B
1484082015.41,47071,5.31,72536.3,-18.65,-50.89,-51.25,0,*68
1484082016.63,47072,5.25,72528.8,-18.65,-50.89,-51.11,0,*6C
1484082017.91,47073,5.25,72530.3,-18.65,-50.83,-51.25,0,*60
1484082019.17,47074,5.25,72528.8,-18.67,-51.05,-51.33,0,*6D
1484082020.44,47075,5.25,72534.3,-18.65,-51.25,-51.47,0,*6F
1484082021.69,47076,5.25,72534.5,-18.65,-51.25,-51.69,0,*60
1484082022.96,47077,5.25,72536.8,-18.65,-51.25,-51.55,0,*6E
1484082024.25,47078,5.25,72540.3,-18.67,-51.25,-51.55,0,*63
1484082025.53,47079,5.25,72542.5,-18.65,-51.25,-51.47,0,*63
1484082026.81,47080,5.25,72538.8,-18.67,-51.33,-51.55,0,*63
1484082028.08,47081,5.25,72534.3,-18.67,-51.11,-51.55,0,*62
1484082029.34,47082,5.25,72536.5,-18.67,-51.05,-51.47,0,*67
1484082030.61,47083,5.25,72534.8,-18.69,-51.25,-51.55,0,*69
1484082031.88,47084,5.25,72536.5,-18.69,-51.33,-51.47,0,*6A
1484082033.15,47085,5.25,72536.8,-18.67,-50.89,-51.33,0,*66
1484082034.41,47086,5.25,72538.3,-18.67,-50.89,-51.25,0,*62
1484082035.67,47087,5.25,72534.3,-18.67,-50.89,-51.33,0,*64
1484082036.92,47088,5.25,72536.5,-18.65,-51.11,-51.55,0,*69
1484082038.18,47089,5.25,72538.8,-18.67,-51.11,-51.55,0,*6A
1484082039.46,47090,5.25,72542.3,-18.71,-51.19,-51.63,0,*68
1484082040.72,47091,5.25,72538.0,-18.71,-51.33,-51.77,0,*64
1484082042.01,47092,5.25,72538.5,-18.71,-51.33,-51.55,0,*67
1484082043.26,47093,5.25,72538.0,-18.69,-51.05,-51.33,0,*6A
1484082044.51,47094,5.25,72536.5,-18.69,-51.05,-51.47,0,*6E
1484082045.78,47095,5.25,72538.5,-18.69,-51.25,-51.55,0,*6E
1484082047.02,47096,5.25,72538.8,-18.71,-50.97,-51.41,0,*69
1484082048.27,47097,5.25,72540.5,-18.69,-50.89,-51.33,0,*6B
1484082049.52,47098,5.25,72538.0,-18.69,-50.83,-51.05,0,*6B
1484082050.8,47099,5.25,72536.3,-18.69,-50.61,-50.83,0,*69
1484082052.02,47100,5.25,72534.3,-18.69,-50.75,-51.11,0,*67
1484082053.24,47101,5.25,72530.5,-18.69,-50.89,-51.11,0,*65
1484082054.48,47102,5.25,72532.5,-18.71,-50.97,-51.11,0,*60
1484082055.7,47103,5.25,72526.5,-18.69,-50.89,-51.05,0,*62
1484082056.94,47104,5.25,72526.8,-18.71,-50.89,-50.89,0,*69
1484082058.21,47105,5.25,72528.3,-18.71,-50.89,-51.33,0,*68
1484082059.45,47106,5.25,72528.0,-18.71,-50.89,-51.19,0,*63
1484082060.7,47107,5.25,72530.0,-18.69,-50.89,-51.25,0,*64
1484082061.94,47108,5.25,72536.5,-18.71,-51.11,-51.41,0,*60
1484082063.19,47109,5.25,72536.3,-18.69,-51.05,-51.33,0,*68
1484082064.43,47110,5.25,72532.8,-18.71,-50.97,-51.41,0,*66
1484082065.68,47111,5.25,72532.0,-18.69,-51.05,-51.47,0,*62
1484082066.92,47112,5.25,72526.0,-18.71,-50.97,-51.19,0,*69
1484082068.17,47113,5.25,72524.5,-18.69,-50.89,-51.25,0,*61
1484082069.41,47114,5.25,72528.5,-18.71,-50.89,-51.19,0,*60
1484082070.66,47115,5.25,72530.5,-18.69,-50.83,-51.11,0,*6A
1484082071.91,47116,5.25,72530.5,-18.71,-50.75,-51.19,0,*61
1484082073.16,47117,5.25,72530.3,-18.69,-50.83,-51.05,0,*6D
1484082074.4,47118,5.25,72530.8,-18.71,-50.89,-51.19,0,*6C
1484082075.67,47119,5.25,72532.5,-18.71,-50.89,-51.33,0,*65
1484082076.92,47120,5.25,72530.8,-18.69,-50.61,-50.89,0,*60
1484082078.17,47121,5.25,72532.3,-18.69,-50.83,-51.11,0,*6D
1484082079.42,47122,5.25,72534.3,-18.69,-50.89,-51.33,0,*64
1484082080.67,47123,5.25,72532.8,-18.69,-51.11,-51.47,0,*66
1484082081.96,47124,5.25,72534.8,-18.71,-51.33,-51.55,0,*6B
1484082083.2,47125,5.25,72532.3,-18.69,-50.89,-51.33,0,*63
1484082084.47,47126,5.25,72536.5,-18.71,-50.97,-51.55,0,*66
1484082085.72,47127,5.25,72538.0,-18.69,-51.11,-51.47,0,*62
1484082087.01,47128,5.25,72536.0,-18.71,-51.33,-51.63,0,*62
1484082088.29,47129,5.25,72536.8,-18.71,-51.41,-51.63,0,*66
1484082089.56,47130,5.25,72538.8,-18.71,-51.19,-51.63,0,*63
1484082090.84,47131,5.25,72536.8,-18.71,-51.19,-51.55,0,*67
1484082092.11,47132,5.25,72538.5,-18.71,-51.11,-51.55,0,*6C
1484082093.4,47133,5.25,72538.8,-18.71,-51.33,-51.55,0,*6D
1484082094.67,47134,5.25,72536.3,-18.71,-51.19,-51.63,0,*67
1484082095.95,47135,5.25,72534.0,-18.71,-51.19,-51.63,0,*66
1484082097.19,47136,5.25,72532.5,-18.75,-51.11,-51.41,0,*69
1484082098.43,47137,5.25,72538.3,-18.75,-50.97,-51.41,0,*67
1484082099.67,47138,5.25,72532.5,-18.75,-51.11,-51.41,0,*67
1484082100.94,47139,5.25,72534.3,-18.77,-51.19,-51.55,0,*69
1484082102.19,47140,5.25,72532.5,-18.75,-51.19,-51.41,0,*60
1484082103.46,47141,5.25,72534.8,-18.75,-51.19,-51.55,0,*64
1484082104.73,47142,5.25,72534.3,-18.77,-51.19,-51.63,0,*60
1484082106.0,47143,5.25,72534.0,-18.77,-51.19,-51.47,0,*67
1484082107.26,47144,5.25,72532.3,-18.75,-50.97,-51.55,0,*66
1484082108.52,47145,5.25,72534.0,-18.75,-50.97,-51.55,0,*67
1484082109.8,47146,5.25,72534.3,-18.75,-51.19,-51.63,0,*66
1484082111.06,47147,5.25,72532.3,-18.75,-50.97,-51.55,0,*65
1484082112.29,47148,5.25,72528.0,-18.77,-50.97,-51.11,0,*68
1484082113.53,47149,5.25,72530.0,-18.77,-50.97,-51.41,0,*6C
1484082114.8,47150,5.25,72532.3,-18.75,-50.89,-51.33,0,*6C
1484082116.03,47151,5.25,72532.0,-18.77,-51.05,-51.41,0,*6F
1484082117.29,47152,5.25,72530.8,-18.75,-50.97,-51.55,0,*61
1484082118.57,47153,5.25,72532.0,-18.77,-51.19,-51.47,0,*66
1484082119.84,47154,5.25,72532.3,-18.77,-51.19,-51.63,0,*67
1484082121.11,47155,5.25,72532.5,-18.77,-51.19,-51.63,0,*66
1484082122.35,47156,5.25,72534.8,-18.77,-51.05,-51.41,0,*68
1484082123.62,47157,5.25,72538.3,-18.77,-51.05,-51.25,0,*6B
1484082124.92,47158,5.25,72538.5,-18.77,-51.25,-51.63,0,*64
1484082126.19,47159,5.25,72530.3,-18.77,-51.19,-51.47,0,*6C
1484082127.43,47160,5.25,72534.3,-18.75,-51.11,-51.41,0,*6A
1484082128.7,47161,5.25,72528.5,-18.77,-51.05,-51.63,0,*6C
1484082129.97,47162,5.25,72530.3,-18.77,-51.25,-51.69,0,*67
1484082131.24,47163,5.25,72528.5,-18.77,-51.25,-51.69,0,*66
1484082132.52,47164,5.25,72526.5,-18.79,-51.25,-51.63,0,*65
1484082133.76,47165,5.25,72534.3,-18.79,-51.05,-51.25,0,*64
1484082135.01,47166,5.25,72534.3,-18.79,-50.83,-51.05,0,*6A
1484082136.25,47167,5.25,72538.8,-18.79,-50.83,-51.19,0,*66
1484082137.5,47168,5.25,72536.5,-18.79,-50.83,-51.05,0,*64
1484082138.74,47169,5.25,72538.8,-18.79,-51.05,-51.47,0,*6C
1484082139.95,47170,5.25,72536.0,-18.79,-51.05,-51.41,0,*62
1484082141.17,47171,5.25,72536.8,-18.79,-51.05,-51.41,0,*63
1484082142.41,47172,5.25,72530.0,-18.79,-50.97,-51.25,0,*68
1484082143.66,47173,5.25,72526.8,-18.79,-50.83,-51.19,0,*63
1484082144.93,47174,5.25,72524.5,-18.79,-50.83,-51.25,0,*6B
1484082146.14,47175,5.25,72526.0,-18.79,-50.97,-51.41,0,*6D
1484082147.36,47176,5.25,72528.8,-18.79,-50.75,-51.19,0,*6F
1484082148.61,47177,5.25,72530.3,-18.79,-50.83,-51.19,0,*67
1484082149.82,47178,5.25,72528.0,-18.79,-50.97,-51.41,0,*60
1484082151.07,47179,5.25,72530.3,-18.79,-50.83,-51.05,0,*64
1484082152.28,47180,5.25,72528.5,-18.79,-50.97,-51.19,0,*6A
1484082153.52,47181,5.25,72528.0,-18.79,-50.83,-51.19,0,*6E
1484082154.77,47182,5.25,72530.8,-18.79,-50.83,-51.05,0,*60
1484082156.01,47183,5.25,72524.8,-18.79,-50.53,-50.75,0,*6A
1484082157.23,47184,5.25,72528.5,-18.79,-50.75,-50.97,0,*65
1484082158.47,47185,5.25,72528.8,-18.77,-50.75,-51.05,0,*60
1484082159.72,47186,5.25,72532.3,-18.79,-50.61,-51.05,0,*68
1484082160.97,47187,5.25,72528.3,-18.77,-50.75,-51.05,0,*62
1484082162.19,47188,5.25,72528.5,-18.79,-50.75,-50.97,0,*69
1484082163.45,47189,5.25,72530.8,-18.77,-50.53,-50.97,0,*62
1484082164.72,47190,5.25,72528.8,-18.77,-50.61,-50.97,0,*6B
1484082165.94,47191,5.25,72530.8,-18.79,-50.97,-51.19,0,*6A
1484082167.18,47192,5.25,72524.3,-18.79,-51.05,-51.47,0,*68
1484082168.42,47193,5.25,72528.0,-18.79,-50.83,-50.97,0,*6A
1484082169.67,47194,5.25,72526.0,-18.79,-50.83,-51.19,0,*6A
1484082170.92,47195,5.25,72530.3,-18.79,-50.83,-51.19,0,*6B
1484082172.13,47196,5.25,72528.5,-18.79,-50.97,-51.41,0,*60
1484082173.37,47197,5.25,72528.3,-18.79,-50.83,-51.05,0,*64
1484082174.62,47198,5.25,72530.8,-18.79,-50.75,-51.25,0,*60
1484082175.87,47199,5.25,72526.5,-18.79,-50.83,-51.19,0,*67
1484082177.11,47200,5.25,72530.0,-18.79,-50.83,-51.19,0,*64
1484082178.33,47201,5.25,72528.3,-18.79,-50.97,-51.19,0,*60
1484082179.58,47202,5.25,72528.3,-18.79,-51.19,-51.63,0,*69
1484082180.82,47203,5.25,72532.3,-18.79,-51.19,-51.63,0,*68
1484082182.07,47204,5.25,72530.0,-18.79,-51.19,-51.63,0,*6F
1484082183.29,47205,5.25,72528.0,-18.79,-51.05,-51.41,0,*63
1484082184.53,47206,5.25,72526.3,-18.79,-51.05,-51.47,0,*66
1484082185.77,47207,5.25,72526.5,-18.79,-51.05,-51.63,0,*61
1484082186.99,47208,5.25,72530.3,-18.79,-51.05,-51.69,0,*64
1484082188.23,47209,5.25,72530.8,-18.79,-51.05,-51.47,0,*69
1484082189.44,47210,5.25,72526.8,-18.79,-51.05,-51.41,0,*67
1484082190.65,47211,5.25,72528.0,-18.79,-51.05,-51.41,0,*66
1484082191.9,47212,5.25,72528.3,-18.79,-51.19,-51.47,0,*6E
1484082193.15,47213,5.25,72532.3,-18.79,-51.19,-51.47,0,*6F
1484082194.4,47214,5.25,72528.8,-18.79,-51.19,-51.47,0,*68
1484082195.69,47215,5.25,72530.8,-18.81,-51.25,-51.55,0,*62
1484082196.96,47216,5.25,72530.3,-18.81,-51.11,-51.47,0,*65
1484082198.2,47217,5.25,72530.0,-18.79,-50.97,-51.25,0,*68
1484082199.44,47218,5.25,72528.0,-18.79,-50.97,-51.25,0,*67
1484082200.71,47219,5.25,72532.0,-18.81,-51.05,-51.33,0,*6C
1484082201.98,47220,5.25,72530.3,-18.81,-51.11,-51.47,0,*60
1484082203.25,47221,5.25,72532.8,-18.81,-51.11,-51.55,0,*62
1484082204.51,47222,5.25,72534.5,-18.81,-51.11,-51.55,0,*61
1484082205.78,47223,5.25,72530.8,-18.81,-51.11,-51.47,0,*63
1484082207.03,47224,5.25,72530.0,-18.81,-50.67,-51.05,0,*62
1484082208.28,47225,5.25,72530.5,-18.81,-50.67,-51.11,0,*66
1484082209.54,47226,5.25,72530.3,-18.81,-51.05,-51.47,0,*63
1484082210.81,47227,5.25,72528.3,-18.81,-51.11,-51.55,0,*64
1484082212.07,47228,5.25,72530.8,-18.81,-51.11,-51.47,0,*68
1484082213.31,47229,5.25,72530.5,-18.81,-50.89,-51.11,0,*6A
1484082214.58,47230,5.25,72532.8,-18.85,-51.11,-51.55,0,*66
1484082215.85,47231,5.25,72538.8,-18.81,-50.83,-51.11,0,*69
1484082217.09,47232,5.25,72536.3,-18.85,-50.89,-51.19,0,*6C
1484082218.34,47233,5.25,72538.3,-18.81,-50.67,-51.05,0,*64
1484082219.61,47234,5.25,72534.8,-18.85,-50.61,-50.89,0,*64
1484082220.88,47235,5.25,72528.8,-18.85,-50.61,-50.89,0,*65
1484082222.13,47236,5.25,72530.5,-18.81,-50.67,-51.05,0,*61
1484082223.4,47237,5.25,72530.3,-18.81,-50.61,-51.11,0,*63
1484082224.67,47238,5.25,72528.8,-18.85,-50.97,-51.33,0,*61
1484082225.93,47239,5.25,72528.5,-18.81,-50.89,-51.25,0,*6C
1484082227.2,47240,5.25,72524.8,-18.85,-51.11,-51.55,0,*61
1484082228.48,47241,5.25,72528.5,-18.85,-51.19,-51.63,0,*6D
1484082229.77,47242,5.25,72534.8,-18.85,-51.33,-51.55,0,*63
1484082231.04,47243,5.25,72528.8,-18.81,-51.11,-51.33,0,*66
1484082232.3,47244,5.25,72532.3,-18.81,-51.05,-51.33,0,*64
1484082233.57,47245,5.25,72530.5,-18.85,-51.11,-51.55,0,*64
1484082234.84,47246,5.25,72530.8,-18.85,-51.11,-51.55,0,*67
1484082236.11,47247,5.25,72534.3,-18.81,-51.11,-51.55,0,*62
1484082237.35,47248,5.25,72526.0,-18.85,-50.89,-51.19,0,*61
1484082238.6,47249,5.25,72526.3,-18.81,-50.67,-51.05,0,*69
1484082239.84,47250,5.25,72524.3,-18.85,-50.97,-51.19,0,*67
1484082241.05,47251,5.25,72528.8,-18.87,-50.97,-51.19,0,*64
1484082242.3,47252,5.25,72528.5,-18.85,-51.11,-51.19,0,*6A
1484082243.57,47253,5.25,72526.3,-18.85,-50.75,-51.33,0,*60
1484082244.82,47254,5.25,72526.3,-18.85,-50.75,-50.97,0,*68
1484082246.06,47255,5.25,72526.3,-18.85,-50.89,-51.19,0,*6D
1484082247.3,47256,5.25,72522.8,-18.85,-50.89,-51.41,0,*63
1484082248.55,47257,5.25,72524.8,-18.85,-51.11,-51.41,0,*62
1484082249.82,47258,5.25,72528.0,-18.81,-50.83,-51.19,0,*6E
1484082251.09,47259,5.25,72528.5,-18.85,-50.97,-51.33,0,*66
1484082252.33,47260,5.25,72526.8,-18.85,-51.19,-51.41,0,*6E
1484082253.6,47261,5.25,72524.5,-18.85,-51.19,-51.55,0,*6A
1484082254.85,47262,5.25,72524.8,-18.87,-51.11,-51.55,0,*63
1484082256.06,47263,5.25,72526.0,-18.87,-50.97,-51.19,0,*65
1484082257.3,47264,5.25,72526.5,-18.87,-51.11,-51.55,0,*65
1484082258.55,47265,5.25,72522.8,-18.87,-51.19,-51.55,0,*6C
1484082259.79,47266,5.25,72522.8,-18.87,-51.19,-51.55,0,*6F
1484082261.01,47267,5.25,72526.3,-18.87,-51.19,-51.41,0,*6B
1484082262.26,47268,5.19,72520.5,-18.89,-51.11,-51.41,0,*62
1484082263.47,47269,5.25,72526.5,-18.87,-50.97,-51.41,0,*62
1484082264.69,47270,5.25,72522.8,-18.87,-50.89,-51.11,0,*60
1484082265.9,47271,5.25,72522.3,-18.87,-50.89,-50.97,0,*6E
1484082267.14,47272,5.25,72522.3,-18.87,-51.11,-51.55,0,*62
1484082268.38,47273,5.25,72520.8,-18.87,-50.89,-51.33,0,*63
1484082269.62,47274,5.19,72520.5,-18.87,-50.97,-51.33,0,*6B
1484082270.89,47275,5.25,72524.3,-18.89,-50.89,-51.33,0,*6B
1484082272.14,47276,5.25,72520.8,-18.89,-50.75,-51.11,0,*6B
1484082273.41,47277,5.25,72520.5,-18.89,-50.97,-51.33,0,*66
1484082274.67,47278,5.19,72522.5,-18.89,-50.89,-51.33,0,*66
1484082275.89,47279,5.25,72522.0,-18.87,-51.11,-51.41,0,*6C
1484082277.1,47280,5.25,72526.8,-18.87,-50.89,-51.41,0,*6A
1484082278.34,47281,5.25,72524.5,-18.89,-50.97,-51.19,0,*67
1484082279.61,47282,5.25,72518.3,-18.89,-50.89,-51.33,0,*63
1484082280.85,47283,5.25,72522.3,-18.87,-50.97,-51.33,0,*63
1484082282.06,47284,5.25,72520.8,-18.87,-50.97,-51.19,0,*6C
1484082283.29,47285,5.25,72520.0,-18.87,-50.75,-51.19,0,*61
1484082284.55,47286,5.25,72522.8,-18.89,-50.97,-51.33,0,*68
1484082285.8,47287,5.25,72520.5,-18.89,-50.67,-50.97,0,*69
1484082287.03,47288,5.25,72520.3,-18.87,-50.75,-51.19,0,*6C
1484082288.28,47289,5.25,72522.8,-18.89,-50.67,-50.97,0,*67
1484082289.49,47290,5.19,72520.3,-18.87,-50.89,-51.11,0,*6E
1484082290.73,47291,5.19,72520.0,-18.87,-50.89,-51.33,0,*6F
1484082291.98,47292,5.25,72526.3,-18.89,-50.75,-51.11,0,*61
1484082293.26,47293,5.25,72524.0,-18.89,-51.11,-51.33,0,*63
1484082294.51,47294,5.25,72522.5,-18.89,-50.67,-50.97,0,*6B
1484082295.75,47295,5.25,72526.5,-18.89,-50.47,-50.75,0,*64
1484082296.99,47296,5.25,72524.0,-18.89,-50.47,-50.67,0,*64
1484082298.21,47297,5.25,72522.8,-18.87,-50.67,-51.11,0,*69
1484082299.46,47298,5.25,72522.5,-18.87,-50.61,-50.75,0,*63
1484082300.68,47299,5.19,72526.0,-18.87,-50.67,-50.75,0,*64
1484082301.92,47300,5.25,72522.5,-18.89,-50.47,-50.75,0,*69
1484082303.15,47301,5.25,72522.5,-18.87,-50.67,-50.97,0,*68
1484082304.36,47302,5.25,72526.0,-18.87,-50.89,-51.11,0,*64
1484082305.59,47303,5.19,72522.5,-18.87,-50.67,-50.97,0,*6A
1484082306.8,47304,5.25,72526.5,-18.87,-50.89,-50.97,0,*6D
1484082308.04,47305,5.25,72522.5,-18.89,-50.89,-51.19,0,*65
1484082309.25,47306,5.25,72524.0,-18.87,-50.97,-51.11,0,*6F
1484082310.47,47307,5.25,72526.8,-18.87,-50.89,-50.97,0,*6E
1484082311.69,47308,5.25,72524.0,-18.87,-50.67,-50.89,0,*6E
1484082312.96,47309,5.25,72522.8,-18.89,-50.61,-50.89,0,*67
1484082314.18,47310,5.25,72526.5,-18.87,-50.75,-51.11,0,*64
1484082315.4,47311,5.25,72526.8,-18.87,-50.75,-51.11,0,*65
1484082316.63,47312,5.25,72526.5,-18.87,-50.75,-51.11,0,*66
1484082317.85,47313,5.25,72526.8,-18.87,-50.75,-51.11,0,*67
1484082319.07,47314,5.25,72524.8,-18.87,-50.67,-50.97,0,*6C
1484082320.31,47315,5.25,72526.0,-18.89,-50.89,-51.11,0,*6C
1484082321.54,47316,5.25,72524.5,-18.87,-50.75,-51.11,0,*62
1484082322.78,47317,5.19,72522.5,-18.89,-50.97,-51.19,0,*69
1484082324.0,47318,5.25,72530.0,-18.87,-50.75,-51.11,0,*6C
1484082325.25,47319,5.25,72530.3,-18.87,-50.61,-50.75,0,*6B
1484082326.47,47320,5.25,72526.5,-18.87,-50.67,-50.75,0,*67
1484082327.69,47321,5.19,72524.0,-18.87,-50.75,-50.97,0,*69
1484082328.92,47322,5.25,72528.8,-18.87,-50.67,-51.11,0,*66
1484082330.13,47323,5.25,72528.5,-18.87,-50.89,-51.19,0,*6F
1484082331.37,47324,5.25,72526.3,-18.87,-50.97,-51.33,0,*6F
1484082332.61,47325,5.25,72526.3,-18.89,-50.89,-51.19,0,*67
1484082333.86,47326,5.25,72522.8,-18.87,-50.61,-50.75,0,*67
1484082335.08,47327,5.25,72524.8,-18.87,-50.67,-50.89,0,*63
1484082336.29,47328,5.25,72526.8,-18.87,-50.97,-51.19,0,*6B
1484082337.52,47329,5.25,72526.8,-18.87,-50.75,-50.97,0,*61
1484082338.74,47330,5.25,72528.5,-18.87,-50.75,-50.97,0,*69
1484082339.95,47331,5.25,72524.8,-18.87,-50.97,-51.11,0,*6B
1484082341.17,47332,5.19,72520.0,-18.87,-50.75,-50.97,0,*6B
1484082342.42,47333,5.25,72526.8,-18.87,-50.61,-50.89,0,*60
1484082343.64,47334,5.25,72526.5,-18.87,-50.67,-50.67,0,*61
1484082344.89,47335,5.19,72522.5,-18.87,-50.61,-50.89,0,*66
1484082346.11,47336,5.19,72522.0,-18.87,-50.75,-50.97,0,*6F
1484082347.33,47337,5.25,72524.0,-18.87,-50.75,-50.97,0,*6E
1484082348.55,47338,5.25,72524.3,-18.87,-50.75,-50.97,0,*61
1484082349.77,47339,5.25,72520.8,-18.87,-50.67,-50.89,0,*6C
1484082350.99,47340,5.25,72524.3,-18.87,-50.89,-51.11,0,*62
1484082352.21,47341,5.25,72526.8,-18.87,-50.67,-50.89,0,*63
1484082353.43,47342,5.19,72526.0,-18.87,-50.75,-50.97,0,*6C
1484082354.65,47343,5.25,72526.0,-18.87,-50.75,-50.97,0,*6D
1484082355.87,47344,5.25,72524.8,-18.87,-50.75,-51.19,0,*6D
1484082357.09,47345,5.25,72524.0,-18.87,-50.89,-50.97,0,*68
1484082358.34,47346,5.25,72528.0,-18.87,-50.75,-51.33,0,*67
1484082359.58,47347,5.25,72526.3,-18.87,-50.61,-50.75,0,*60
1484082360.8,47348,5.25,72528.3,-18.87,-50.47,-50.67,0,*68
1484082362.05,47349,5.25,72530.5,-18.87,-50.39,-50.61,0,*66
1484082363.3,47350,5.25,72524.8,-18.87,-50.39,-50.61,0,*6E
1484082364.55,47351,5.25,72524.0,-18.85,-50.67,-50.67,0,*60
1484082365.8,47352,5.25,72530.8,-18.85,-50.75,-50.97,0,*6F
1484082367.05,47353,5.25,72530.5,-18.85,-50.67,-50.89,0,*62
1484082368.33,47354,5.19,72522.3,-18.85,-50.39,-50.61,0,*68
1484082369.57,47355,5.25,72522.3,-18.85,-50.47,-50.67,0,*66
1484082370.84,47356,5.25,72522.3,-18.81,-50.61,-50.97,0,*6A
1484082372.13,47357,5.25,72526.8,-18.81,-50.61,-50.83,0,*6E
1484082373.41,47358,5.25,72526.3,-18.85,-50.39,-50.61,0,*64
1484082374.71,47359,5.19,72516.0,-18.85,-50.25,-50.61,0,*68
1484082375.95,47360,5.25,72524.5,-18.79,-50.53,-50.75,0,*65
1484082377.22,47361,5.25,72524.5,-18.81,-50.39,-50.61,0,*6A
1484082378.51,47362,5.25,72520.3,-18.81,-50.53,-50.83,0,*69
1484082379.79,47363,5.25,72526.8,-18.81,-50.39,-50.61,0,*68
1484082381.08,47364,5.25,72526.5,-18.81,-50.33,-50.53,0,*64
1484082382.35,47365,5.25,72518.8,-18.81,-50.39,-50.61,0,*6E
1484082383.65,47366,5.25,72518.3,-18.81,-50.33,-50.61,0,*67
1484082384.92,47367,5.19,72512.5,-18.81,-50.39,-50.53,0,*6D
1484082386.17,47368,5.25,72522.5,-18.81,-50.67,-51.05,0,*6B
1484082387.44,47369,5.25,72524.0,-18.81,-50.61,-50.67,0,*69
1484082388.71,47370,5.25,72526.0,-18.79,-50.33,-50.53,0,*66
1484082389.98,47371,5.25,72526.0,-18.79,-50.61,-50.83,0,*6D
1484082391.25,47372,5.25,72522.8,-18.79,-50.33,-50.53,0,*64
1484082392.47,47373,5.19,72518.0,-18.79,-50.47,-50.75,0,*62
1484082393.73,47374,5.25,72520.0,-18.79,-50.53,-50.83,0,*69
1484082394.98,47375,5.25,72526.5,-18.79,-50.83,-51.19,0,*67
1484082396.2,47376,5.25,72526.3,-18.79,-50.75,-50.97,0,*6A
1484082397.47,47377,5.25,72528.3,-18.79,-50.61,-50.83,0,*6B
1484082398.74,47378,5.25,72524.5,-18.81,-50.61,-51.05,0,*6C
1484082399.99,47379,5.25,72524.3,-18.79,-50.61,-50.97,0,*60
1484082401.23,47380,5.25,72522.8,-18.79,-50.47,-50.61,0,*6B
1484082402.47,47381,5.25,72520.8,-18.79,-50.61,-50.97,0,*67
1484082403.72,47382,5.25,72520.5,-18.79,-50.33,-50.75,0,*6F
1484082404.96,47383,5.25,72522.0,-18.79,-50.53,-50.97,0,*64
1484082406.18,47384,5.25,72516.8,-18.79,-50.75,-50.97,0,*67
1484082407.45,47385,5.25,72514.8,-18.79,-50.53,-50.83,0,*67
1484082408.69,47386,5.25,72520.8,-18.79,-50.61,-50.97,0,*60
1484082409.94,47387,5.25,72522.8,-18.79,-50.83,-51.05,0,*67
1484082411.18,47388,5.25,72526.8,-18.79,-50.83,-51.19,0,*65
1484082412.43,47389,5.19,72516.5,-18.79,-50.83,-51.19,0,*64
1484082413.65,47390,5.25,72522.3,-18.79,-50.75,-51.05,0,*68
1484082414.87,47391,5.25,72522.0,-18.79,-50.75,-50.97,0,*63
1484082416.15,47392,5.25,72526.5,-18.79,-50.83,-51.25,0,*61
1484082417.37,47393,5.25,72520.5,-18.79,-50.75,-51.05,0,*6B
1484082418.61,47394,5.25,72520.5,-18.79,-50.61,-50.97,0,*63
1484082419.84,47395,5.25,72528.3,-18.79,-50.75,-51.19,0,*60
1484082421.08,47396,5.25,72524.5,-18.79,-50.83,-50.97,0,*6D
1484082422.38,47397,5.25,72522.5,-18.81,-50.61,-50.83,0,*62
1484082423.66,47398,5.25,72520.8,-18.81,-50.53,-50.83,0,*6C
1484082424.93,47399,5.25,72522.0,-18.81,-50.83,-51.05,0,*6F
1484082426.17,47400,5.25,72518.8,-18.81,-50.89,-51.05,0,*62
1484082427.41,47401,5.25,72520.3,-18.81,-50.67,-51.05,0,*63
1484082428.68,47402,5.25,72522.3,-18.81,-50.53,-50.67,0,*62
1484082429.95,47403,5.25,72516.8,-18.81,-50.61,-50.89,0,*62
1484082431.18,47404,5.25,72524.3,-18.79,-50.53,-50.75,0,*60
1484082432.4,47405,5.25,72516.5,-18.79,-50.75,-50.97,0,*69
1484082433.65,47406,5.25,72518.8,-18.79,-50.61,-51.05,0,*65
1484082434.92,47407,5.25,72518.8,-18.81,-50.61,-51.05,0,*63
1484082436.17,47408,5.25,72522.0,-18.81,-50.67,-50.89,0,*6F
1484082437.44,47409,5.25,72522.8,-18.79,-50.61,-50.83,0,*65
1484082438.69,47410,5.25,72518.0,-18.79,-50.61,-50.97,0,*68
1484082439.96,47411,5.25,72520.0,-18.79,-50.61,-50.83,0,*6C
1484082441.18,47412,5.25,72522.8,-18.79,-50.75,-50.97,0,*6F
1484082442.41,47413,5.25,72520.3,-18.79,-50.53,-50.75,0,*66
1484082443.66,47414,5.25,72522.0,-18.79,-50.61,-51.05,0,*66
1484082444.88,47415,5.25,72516.3,-18.79,-50.75,-51.19,0,*6F
1484082446.13,47416,5.25,72522.8,-18.79,-50.61,-50.75,0,*62
1484082447.35,47417,5.25,72522.8,-18.79,-50.75,-50.97,0,*6A
1484082448.6,47418,5.25,72518.5,-18.79,-50.61,-51.05,0,*6A
1484082449.87,47419,5.25,72522.5,-18.79,-50.61,-50.83,0,*64
1484082451.09,47420,5.25,72524.5,-18.79,-50.75,-50.97,0,*6E
1484082452.33,47421,5.25,72522.3,-18.79,-50.97,-51.25,0,*6B
1484082453.58,47422,5.25,72526.0,-18.79,-50.83,-51.19,0,*62
1484082454.79,47423,5.25,72526.5,-18.79,-50.47,-50.75,0,*60
1484082456.03,47424,5.19,72520.3,-18.79,-50.53,-50.97,0,*6E
1484082457.3,47425,5.25,72522.3,-18.79,-50.61,-50.83,0,*6B
1484082458.54,47426,5.25,72522.5,-18.79,-50.47,-50.61,0,*60
1484082459.76,47427,5.25,72520.8,-18.79,-50.75,-50.97,0,*69
1484082461.0,47428,5.25,72522.3,-18.79,-50.53,-50.75,0,*6E
1484082462.24,47429,5.25,72522.5,-18.79,-50.53,-50.75,0,*6F
1484082463.46,47430,5.25,72520.8,-18.79,-50.75,-51.05,0,*65
1484082464.71,47431,5.25,72520.5,-18.79,-50.61,-50.97,0,*6B
1484082465.96,47432,5.25,72522.3,-18.79,-50.61,-50.97,0,*68
1484082467.23,47433,5.25,72526.8,-18.79,-50.33,-50.61,0,*67
1484082468.47,47434,5.25,72520.3,-18.79,-50.53,-50.97,0,*6F
1484082469.74,47435,5.25,72526.8,-18.79,-50.53,-50.61,0,*67
1484082470.95,47436,5.25,72524.5,-18.79,-50.47,-50.75,0,*64
1484082472.17,47437,5.25,72522.3,-18.79,-50.75,-51.05,0,*62
1484082473.44,47438,5.25,72520.5,-18.79,-50.61,-50.83,0,*67
1484082474.68,47439,5.25,72520.0,-18.79,-50.47,-50.61,0,*6E
1484082475.92,47440,5.25,72522.0,-18.79,-50.53,-50.97,0,*6C
1484082477.19,47441,5.25,72522.3,-18.79,-50.53,-50.83,0,*68
1484082478.43,47442,5.25,72518.3,-18.79,-50.53,-50.75,0,*62
1484082479.67,47443,5.25,72518.5,-18.79,-50.83,-51.19,0,*65
1484082480.92,47444,5.25,72518.0,-18.79,-50.83,-51.05,0,*6F
1484082482.16,47445,5.25,72522.5,-18.79,-50.75,-50.83,0,*68
1484082483.37,47446,5.25,72518.3,-18.79,-50.97,-51.19,0,*65
1484082484.59,47447,5.25,72516.3,-18.79,-50.97,-51.19,0,*64
1484082485.8,47448,5.25,72516.0,-18.79,-50.97,-51.05,0,*66
1484082487.01,47449,5.19,72516.3,-18.79,-50.97,-51.19,0,*6A
1484082488.23,47450,5.25,72516.3,-18.79,-50.97,-51.19,0,*62
1484082489.47,47451,5.25,72522.8,-18.79,-51.05,-51.63,0,*64
1484082490.68,47452,5.25,72522.3,-18.79,-51.05,-51.41,0,*67
1484082491.96,47453,5.19,72522.5,-18.79,-50.83,-51.25,0,*6B
1484082493.2,47454,5.25,72518.0,-18.79,-51.05,-51.25,0,*63
1484082494.43,47455,5.25,72518.5,-18.79,-50.75,-51.05,0,*66
1484082495.7,47456,5.25,72520.8,-18.79,-50.61,-50.83,0,*6F
1484082496.94,47457,5.25,72522.3,-18.79,-50.83,-51.19,0,*60
1484082498.18,47458,5.25,72522.3,-18.79,-50.97,-51.25,0,*65